Time,TemperatureF,DewpointF,PressureIn,WindDirection,WindDirectionDegrees,WindSpeedMPH,WindSpeedGustMPH,Humidity,HourlyPrecipIn,Conditions,Clouds,dailyrainin,SoftwareType,DateUTC
2013-07-31 00:00:00,63.3,27.9,30.12,North,-999,0.0,0.0,26,0.00,,,-99.99,FreeWX-Wi 1.01,2013-07-31 07:00:00,
2013-07-31 00:05:00,62.8,28.2,30.12,North,-999,0.0,0.0,27,0.00,,,-99.99,FreeWX-Wi 1.01,2013-07-31 07:05:00,
2013-07-31 00:10:00,62.4,28.9,30.12,North,-999,0.0,0.0,28,0.00,,,-99.99,FreeWX-Wi 1.01,2013-07-31 07:10:00,
2013-07-31 00:15:00,62.2,28.8,30.12,North,-999,0.0,0.0,28,0.00,,,-99.99,FreeWX-Wi 1.01,2013-07-31 07:15:00,
2013-07-31 00:20:00,62.2,28.8,30.12,North,-999,0.0,0.0,28,0.00,,,-99.99,FreeWX-Wi 1.01,2013-07-31 07:20:00,
2013-07-31 00:25:00,62.1,29.5,30.12,North,-999,0.0,0.0,29,0.00,,,-99.99,FreeWX-Wi 1.01,2013-07-31 07:25:00,
2013-07-31 00:30:00,61.9,30.0,30.12,North,-999,0.0,0.0,30,0.00,,,-99.99,FreeWX-Wi 1.01,2013-07-31 07:30:00,
2013-07-31 00:35:00,61.7,31.5,30.12,North,-999,0.0,0.0,32,0.00,,,-99.99,FreeWX-Wi 1.01,2013-07-31 07:35:00,
2013-07-31 00:40:00,61.5,32.2,30.12,North,-999,0.0,0.0,33,0.00,,,-99.99,FreeWX-Wi 1.01,2013-07-31 07:40:00,
2013-07-31 00:45:00,61.5,32.9,30.12,North,-999,0.0,0.0,34,0.00,,,-99.99,FreeWX-Wi 1.01,2013-07-31 07:45:00,
2013-07-31 00:50:00,61.5,32.9,30.12,North,-999,0.0,0.0,34,0.00,,,-99.99,FreeWX-Wi 1.01,2013-07-31 07:50:00,
2013-07-31 00:55:00,61.3,32.7,30.12,North,-999,0.0,0.0,34,0.00,,,-99.99,FreeWX-Wi 1.01,2013-07-31 07:55:00,
2013-07-31 01:00:00,61.3,32.7,30.12,North,-999,0.0,0.0,34,0.00,,,-99.99,FreeWX-Wi 1.01,2013-07-31 08:00:00,
2013-07-31 01:05:00,61.3,33.4,30.12,North,-999,0.0,0.0,35,0.00,,,-99.99,FreeWX-Wi 1.01,2013-07-31 08:05:00,
2013-07-31 01:10:00,61.3,33.4,30.12,North,-999,0.0,0.0,35,0.00,,,-99.99,FreeWX-Wi 1.01,2013-07-31 08:10:00,
2013-07-31 01:15:00,61.3,33.4,30.12,North,-999,0.0,0.0,35,0.00,,,-99.99,FreeWX-Wi 1.01,2013-07-31 08:15:00,
2013-07-31 01:20:00,61.3,33.4,30.12,North,-999,0.0,0.0,35,0.00,,,-99.99,FreeWX-Wi 1.01,2013-07-31 08:20:00,
2013-07-31 01:25:00,61.3,33.4,30.12,North,-999,0.0,0.0,35,0.00,,,-99.99,FreeWX-Wi 1.01,2013-07-31 08:25:00,
2013-07-31 01:30:00,61.3,32.7,30.12,North,-999,0.0,0.0,34,0.00,,,-99.99,FreeWX-Wi 1.01,2013-07-31 08:30:00,
2013-07-31 01:35:00,61.3,32.7,30.12,North,-999,0.0,0.0,34,0.00,,,-99.99,FreeWX-Wi 1.01,2013-07-31 08:35:00,
2013-07-31 01:40:00,61.3,32.7,30.12,North,-999,0.0,0.0,34,0.00,,,-99.99,FreeWX-Wi 1.01,2013-07-31 08:40:00,
2013-07-31 01:45:00,61.3,32.7,30.12,North,-999,0.0,0.0,34,0.00,,,-99.99,FreeWX-Wi 1.01,2013-07-31 08:45:00,
2013-07-31 01:50:00,61.3,32.7,30.12,North,-999,0.0,0.0,34,0.00,,,-99.99,FreeWX-Wi 1.01,2013-07-31 08:50:00,
2013-07-31 01:55:00,61.2,32.5,30.12,North,-999,0.0,0.0,34,0.00,,,-99.99,FreeWX-Wi 1.01,2013-07-31 08:55:00,
2013-07-31 02:00:00,61.2,32.5,30.12,North,-999,0.0,0.0,34,0.00,,,-99.99,FreeWX-Wi 1.01,2013-07-31 09:00:00,
2013-07-31 02:05:00,61.2,32.5,30.12,North,-999,0.0,0.0,34,0.00,,,-99.99,FreeWX-Wi 1.01,2013-07-31 09:05:00,
2013-07-31 02:10:00,61.2,32.5,30.12,North,-999,0.0,0.0,34,0.00,,,-99.99,FreeWX-Wi 1.01,2013-07-31 09:10:00,
2013-07-31 02:15:00,61.2,32.5,30.12,North,-999,0.0,0.0,34,0.00,,,-99.99,FreeWX-Wi 1.01,2013-07-31 09:15:00,
2013-07-31 02:20:00,61.0,32.4,30.12,North,-999,0.0,0.0,34,0.00,,,-99.99,FreeWX-Wi 1.01,2013-07-31 09:20:00,
2013-07-31 02:25:00,60.8,32.2,30.12,North,-999,0.0,0.0,34,0.00,,,-99.99,FreeWX-Wi 1.01,2013-07-31 09:25:00,
2013-07-31 02:30:00,60.6,32.2,30.12,North,-999,0.0,0.0,34,0.00,,,-99.99,FreeWX-Wi 1.01,2013-07-31 09:30:00,
2013-07-31 02:35:00,60.6,32.2,30.12,North,-999,0.0,0.0,34,0.00,,,-99.99,FreeWX-Wi 1.01,2013-07-31 09:35:00,
2013-07-31 02:40:00,60.4,32.0,30.12,North,-999,0.0,0.0,34,0.00,,,-99.99,FreeWX-Wi 1.01,2013-07-31 09:40:00,
2013-07-31 02:45:00,60.4,32.0,30.12,North,-999,0.0,0.0,34,0.00,,,-99.99,FreeWX-Wi 1.01,2013-07-31 09:45:00,
2013-07-31 02:50:00,60.3,32.5,30.12,North,-999,0.0,0.0,35,0.00,,,-99.99,FreeWX-Wi 1.01,2013-07-31 09:50:00,
2013-07-31 02:55:00,60.3,32.5,30.12,North,-999,0.0,0.0,35,0.00,,,-99.99,FreeWX-Wi 1.01,2013-07-31 09:55:00,
2013-07-31 03:00:00,60.1,33.1,30.12,North,-999,0.0,0.0,36,0.00,,,-99.99,FreeWX-Wi 1.01,2013-07-31 10:00:00,
2013-07-31 03:05:00,59.7,32.7,30.12,North,-999,0.0,0.0,36,0.00,,,-99.99,FreeWX-Wi 1.01,2013-07-31 10:05:00,
2013-07-31 03:10:00,59.5,32.5,30.12,North,-999,0.0,0.0,36,0.00,,,-99.99,FreeWX-Wi 1.01,2013-07-31 10:10:00,
2013-07-31 03:15:00,59.4,33.1,30.12,North,-999,0.0,0.0,37,0.00,,,-99.99,FreeWX-Wi 1.01,2013-07-31 10:15:00,
2013-07-31 03:20:00,59.2,34.9,30.15,North,-999,0.0,0.0,40,0.00,,,-99.99,FreeWX-Wi 1.01,2013-07-31 10:20:00,
2013-07-31 03:25:00,58.8,35.8,30.15,North,-999,0.0,0.0,42,0.00,,,-99.99,FreeWX-Wi 1.01,2013-07-31 10:25:00,
2013-07-31 03:30:00,58.5,37.2,30.15,North,-999,0.0,0.0,45,0.00,,,-99.99,FreeWX-Wi 1.01,2013-07-31 10:30:00,
2013-07-31 03:35:00,58.3,37.6,30.15,North,-999,0.0,0.0,46,0.00,,,-99.99,FreeWX-Wi 1.01,2013-07-31 10:35:00,
2013-07-31 03:40:00,58.1,37.4,30.15,North,-999,0.0,0.0,46,0.00,,,-99.99,FreeWX-Wi 1.01,2013-07-31 10:40:00,
2013-07-31 03:45:00,58.1,37.4,30.15,North,-999,0.0,0.0,46,0.00,,,-99.99,FreeWX-Wi 1.01,2013-07-31 10:45:00,
2013-07-31 03:50:00,58.3,37.6,30.12,North,-999,0.0,0.0,46,0.00,,,-99.99,FreeWX-Wi 1.01,2013-07-31 10:50:00,
2013-07-31 03:55:00,58.3,37.6,30.12,North,-999,0.0,0.0,46,0.00,,,-99.99,FreeWX-Wi 1.01,2013-07-31 10:55:00,
2013-07-31 04:00:00,58.3,37.0,30.12,North,-999,0.0,0.0,45,0.00,,,-99.99,FreeWX-Wi 1.01,2013-07-31 11:00:00,
2013-07-31 04:05:00,58.3,37.0,30.15,North,-999,0.0,0.0,45,0.00,,,-99.99,FreeWX-Wi 1.01,2013-07-31 11:05:00,
2013-07-31 04:10:00,58.5,37.2,30.15,North,-999,0.0,0.0,45,0.00,,,-99.99,FreeWX-Wi 1.01,2013-07-31 11:10:00,
2013-07-31 04:15:00,58.5,37.2,30.15,North,-999,0.0,0.0,45,0.00,,,-99.99,FreeWX-Wi 1.01,2013-07-31 11:15:00,
2013-07-31 04:20:00,58.3,37.0,30.15,North,-999,0.0,0.0,45,0.00,,,-99.99,FreeWX-Wi 1.01,2013-07-31 11:20:00,
2013-07-31 04:25:00,58.3,36.5,30.15,North,-999,0.0,0.0,44,0.00,,,-99.99,FreeWX-Wi 1.01,2013-07-31 11:25:00,
2013-07-31 04:30:00,58.3,36.5,30.15,North,-999,0.0,0.0,44,0.00,,,-99.99,FreeWX-Wi 1.01,2013-07-31 11:30:00,
2013-07-31 04:35:00,58.1,36.3,30.15,North,-999,0.0,0.0,44,0.00,,,-99.99,FreeWX-Wi 1.01,2013-07-31 11:35:00,
2013-07-31 04:40:00,57.9,36.7,30.15,North,-999,0.0,0.0,45,0.00,,,-99.99,FreeWX-Wi 1.01,2013-07-31 11:40:00,
2013-07-31 04:45:00,57.9,36.7,30.15,North,-999,0.0,0.0,45,0.00,,,-99.99,FreeWX-Wi 1.01,2013-07-31 11:45:00,
2013-07-31 04:50:00,57.7,37.0,30.12,North,-999,0.0,0.0,46,0.00,,,-99.99,FreeWX-Wi 1.01,2013-07-31 11:50:00,
2013-07-31 04:55:00,57.7,37.0,30.12,North,-999,0.0,0.0,46,0.00,,,-99.99,FreeWX-Wi 1.01,2013-07-31 11:55:00,
2013-07-31 05:00:00,57.6,36.9,30.12,North,-999,0.0,0.0,46,0.00,,,-99.99,FreeWX-Wi 1.01,2013-07-31 12:00:00,
2013-07-31 05:05:00,57.7,37.0,30.12,North,-999,0.0,0.0,46,0.00,,,-99.99,FreeWX-Wi 1.01,2013-07-31 12:05:00,
2013-07-31 05:10:00,57.7,37.0,30.12,North,-999,0.0,0.0,46,0.00,,,-99.99,FreeWX-Wi 1.01,2013-07-31 12:10:00,
2013-07-31 05:15:00,57.7,37.0,30.12,North,-999,0.0,0.0,46,0.00,,,-99.99,FreeWX-Wi 1.01,2013-07-31 12:15:00,
2013-07-31 05:20:00,57.7,37.0,30.12,North,-999,0.0,0.0,46,0.00,,,-99.99,FreeWX-Wi 1.01,2013-07-31 12:20:00,
2013-07-31 05:25:00,57.7,37.0,30.12,North,-999,0.0,0.0,46,0.00,,,-99.99,FreeWX-Wi 1.01,2013-07-31 12:25:00,
2013-07-31 05:30:00,57.6,36.9,30.12,North,-999,0.0,0.0,46,0.00,,,-99.99,FreeWX-Wi 1.01,2013-07-31 12:30:00,
2013-07-31 05:35:00,57.6,36.9,30.12,North,-999,0.0,0.0,46,0.00,,,-99.99,FreeWX-Wi 1.01,2013-07-31 12:35:00,
2013-07-31 05:40:00,57.4,37.4,30.12,North,-999,0.0,0.0,47,0.00,,,-99.99,FreeWX-Wi 1.01,2013-07-31 12:40:00,
2013-07-31 05:46:00,57.2,37.2,30.12,North,-999,0.0,0.0,47,0.00,,,-99.99,FreeWX-Wi 1.01,2013-07-31 12:46:00,
2013-07-31 05:51:00,57.2,37.8,30.12,North,-999,0.0,0.0,48,0.00,,,-99.99,FreeWX-Wi 1.01,2013-07-31 12:51:00,
2013-07-31 05:56:00,57.0,38.1,30.12,North,-999,0.0,0.0,49,0.00,,,-99.99,FreeWX-Wi 1.01,2013-07-31 12:56:00,
2013-07-31 06:01:00,56.8,38.5,30.12,North,-999,0.0,0.0,50,0.00,,,-99.99,FreeWX-Wi 1.01,2013-07-31 13:01:00,
2013-07-31 06:06:00,56.8,38.8,30.12,North,-999,0.0,4.0,51,0.00,,,-99.99,FreeWX-Wi 1.01,2013-07-31 13:06:00,
2013-07-31 06:11:00,56.8,38.8,30.12,North,-999,0.0,0.0,51,0.00,,,-99.99,FreeWX-Wi 1.01,2013-07-31 13:11:00,
2013-07-31 06:16:00,56.8,38.8,30.12,North,-999,0.0,0.0,51,0.00,,,-99.99,FreeWX-Wi 1.01,2013-07-31 13:16:00,
2013-07-31 06:21:00,56.8,38.8,30.12,North,-999,0.0,0.0,51,0.00,,,-99.99,FreeWX-Wi 1.01,2013-07-31 13:21:00,
2013-07-31 06:26:00,56.8,38.8,30.12,North,-999,0.0,3.6,51,0.00,,,-99.99,FreeWX-Wi 1.01,2013-07-31 13:26:00,
2013-07-31 06:31:00,56.8,38.8,30.12,North,-999,0.0,2.7,51,0.00,,,-99.99,FreeWX-Wi 1.01,2013-07-31 13:31:00,
2013-07-31 06:36:00,56.8,38.8,30.12,North,-999,0.0,0.0,51,0.00,,,-99.99,FreeWX-Wi 1.01,2013-07-31 13:36:00,
2013-07-31 06:41:00,57.0,39.0,30.12,North,-999,0.0,0.0,51,0.00,,,-99.99,FreeWX-Wi 1.01,2013-07-31 13:41:00,
2013-07-31 06:46:00,56.8,38.8,30.12,North,-999,0.0,0.0,51,0.00,,,-99.99,FreeWX-Wi 1.01,2013-07-31 13:46:00,
2013-07-31 06:51:00,57.0,39.0,30.12,North,-999,0.0,0.0,51,0.00,,,-99.99,FreeWX-Wi 1.01,2013-07-31 13:51:00,
2013-07-31 06:56:00,57.0,38.5,30.12,North,-999,0.0,0.0,50,0.00,,,-99.99,FreeWX-Wi 1.01,2013-07-31 13:56:00,
2013-07-31 07:01:00,57.0,39.0,30.12,North,-999,0.0,0.0,51,0.00,,,-99.99,FreeWX-Wi 1.01,2013-07-31 14:01:00,
2013-07-31 07:06:00,57.2,38.7,30.12,North,-999,0.0,0.0,50,0.00,,,-99.99,FreeWX-Wi 1.01,2013-07-31 14:06:00,
2013-07-31 07:11:00,57.4,38.8,30.12,North,-999,0.0,0.0,50,0.00,,,-99.99,FreeWX-Wi 1.01,2013-07-31 14:11:00,
2013-07-31 07:16:00,57.4,38.8,30.12,North,-999,0.0,0.0,50,0.00,,,-99.99,FreeWX-Wi 1.01,2013-07-31 14:16:00,
2013-07-31 07:21:00,57.6,39.0,30.12,North,-999,0.0,0.0,50,0.00,,,-99.99,FreeWX-Wi 1.01,2013-07-31 14:21:00,
2013-07-31 07:26:00,57.7,39.2,30.12,North,-999,0.0,0.0,50,0.00,,,-99.99,FreeWX-Wi 1.01,2013-07-31 14:26:00,
2013-07-31 07:31:00,57.7,39.2,30.12,North,-999,0.0,0.0,50,0.00,,,-99.99,FreeWX-Wi 1.01,2013-07-31 14:31:00,
2013-07-31 07:36:00,57.9,39.4,30.12,North,-999,0.0,0.0,50,0.00,,,-99.99,FreeWX-Wi 1.01,2013-07-31 14:36:00,
2013-07-31 07:41:00,58.1,39.6,30.12,North,-999,0.0,0.0,50,0.00,,,-99.99,FreeWX-Wi 1.01,2013-07-31 14:41:00,
2013-07-31 07:46:00,58.1,39.6,30.12,North,-999,0.0,0.0,50,0.00,,,-99.99,FreeWX-Wi 1.01,2013-07-31 14:46:00,
2013-07-31 07:51:00,58.1,39.0,30.12,North,-999,0.0,0.0,49,0.00,,,-99.99,FreeWX-Wi 1.01,2013-07-31 14:51:00,
2013-07-31 07:56:00,58.1,39.0,30.12,North,-999,0.0,0.0,49,0.00,,,-99.99,FreeWX-Wi 1.01,2013-07-31 14:56:00,
2013-07-31 08:01:00,58.3,39.2,30.12,North,-999,0.0,0.0,49,0.00,,,-99.99,FreeWX-Wi 1.01,2013-07-31 15:01:00,
2013-07-31 08:06:00,58.5,39.4,30.12,North,-999,0.0,0.0,49,0.00,,,-99.99,FreeWX-Wi 1.01,2013-07-31 15:06:00,
2013-07-31 08:11:00,58.5,39.4,30.12,North,-999,0.0,0.0,49,0.00,,,-99.99,FreeWX-Wi 1.01,2013-07-31 15:11:00,
2013-07-31 08:16:00,58.6,39.6,30.12,North,-999,0.0,0.0,49,0.00,,,-99.99,FreeWX-Wi 1.01,2013-07-31 15:16:00,
2013-07-31 08:21:00,58.8,39.7,30.15,North,-999,0.0,0.0,49,0.00,,,-99.99,FreeWX-Wi 1.01,2013-07-31 15:21:00,
2013-07-31 08:26:00,59.0,39.9,30.15,North,-999,0.0,0.0,49,0.00,,,-99.99,FreeWX-Wi 1.01,2013-07-31 15:26:00,
2013-07-31 08:31:00,59.2,39.6,30.15,North,-999,0.0,0.0,48,0.00,,,-99.99,FreeWX-Wi 1.01,2013-07-31 15:31:00,
2013-07-31 08:36:00,59.4,39.7,30.15,North,-999,0.0,0.0,48,0.00,,,-99.99,FreeWX-Wi 1.01,2013-07-31 15:36:00,
2013-07-31 08:41:00,59.5,39.9,30.15,North,-999,0.0,0.0,48,0.00,,,-99.99,FreeWX-Wi 1.01,2013-07-31 15:41:00,
2013-07-31 08:46:00,59.7,39.4,30.15,North,-999,0.0,0.0,47,0.00,,,-99.99,FreeWX-Wi 1.01,2013-07-31 15:46:00,
2013-07-31 08:51:00,59.9,39.0,30.15,North,-999,0.0,0.0,46,0.00,,,-99.99,FreeWX-Wi 1.01,2013-07-31 15:51:00,
2013-07-31 08:56:00,59.7,38.3,30.15,North,-999,0.0,0.0,45,0.00,,,-99.99,FreeWX-Wi 1.01,2013-07-31 15:56:00,
2013-07-31 09:01:00,59.7,38.3,30.15,North,-999,0.0,0.0,45,0.00,,,-99.99,FreeWX-Wi 1.01,2013-07-31 16:01:00,
2013-07-31 09:06:00,59.9,39.0,30.15,North,-999,0.0,0.0,46,0.00,,,-99.99,FreeWX-Wi 1.01,2013-07-31 16:06:00,
2013-07-31 09:11:00,60.1,38.7,30.15,North,-999,0.0,0.0,45,0.00,,,-99.99,FreeWX-Wi 1.01,2013-07-31 16:11:00,
2013-07-31 09:16:00,60.3,38.8,30.15,North,-999,0.0,0.0,45,0.00,,,-99.99,FreeWX-Wi 1.01,2013-07-31 16:16:00,
2013-07-31 09:21:00,60.4,39.0,30.15,North,-999,0.0,0.0,45,0.00,,,-99.99,FreeWX-Wi 1.01,2013-07-31 16:21:00,
2013-07-31 09:26:00,60.6,38.7,30.15,North,-999,0.0,0.0,44,0.00,,,-99.99,FreeWX-Wi 1.01,2013-07-31 16:26:00,
2013-07-31 09:31:00,60.8,38.1,30.15,North,-999,0.0,0.0,43,0.00,,,-99.99,FreeWX-Wi 1.01,2013-07-31 16:31:00,
2013-07-31 09:36:00,61.0,38.3,30.12,North,-999,0.0,0.0,43,0.00,,,-99.99,FreeWX-Wi 1.01,2013-07-31 16:36:00,
2013-07-31 09:46:00,61.3,38.1,30.12,North,-999,0.0,0.0,42,0.00,,,-99.99,FreeWX-Wi 1.01,2013-07-31 16:46:00,
2013-07-31 09:51:00,61.7,37.2,30.12,North,-999,0.0,0.0,40,0.00,,,-99.99,FreeWX-Wi 1.01,2013-07-31 16:51:00,
2013-07-31 09:56:00,62.4,37.8,30.12,North,-999,0.0,4.0,40,0.00,,,-99.99,FreeWX-Wi 1.01,2013-07-31 16:56:00,
2013-07-31 10:01:00,62.6,36.0,30.12,North,-999,0.0,0.0,37,0.00,,,-99.99,FreeWX-Wi 1.01,2013-07-31 17:01:00,
2013-07-31 10:06:00,63.0,35.6,30.12,North,-999,0.0,0.0,36,0.00,,,-99.99,FreeWX-Wi 1.01,2013-07-31 17:06:00,
2013-07-31 10:11:00,63.0,34.9,30.12,North,-999,0.0,0.0,35,0.00,,,-99.99,FreeWX-Wi 1.01,2013-07-31 17:11:00,
2013-07-31 10:16:00,63.5,34.7,30.12,North,-999,0.0,0.0,34,0.00,,,-99.99,FreeWX-Wi 1.01,2013-07-31 17:16:00,
2013-07-31 10:21:00,64.2,35.2,30.12,North,-999,0.0,0.0,34,0.00,,,-99.99,FreeWX-Wi 1.01,2013-07-31 17:21:00,
2013-07-31 10:26:00,64.9,35.1,30.12,North,-999,0.0,4.0,33,0.00,,,-99.99,FreeWX-Wi 1.01,2013-07-31 17:26:00,
2013-07-31 10:31:00,65.5,33.3,30.12,North,-999,0.0,4.9,30,0.00,,,-99.99,FreeWX-Wi 1.01,2013-07-31 17:31:00,
2013-07-31 10:36:00,65.5,34.0,30.12,North,-999,0.0,3.6,31,0.00,,,-99.99,FreeWX-Wi 1.01,2013-07-31 17:36:00,
2013-07-31 10:41:00,65.7,33.4,30.12,North,-999,0.0,0.0,30,0.00,,,-99.99,FreeWX-Wi 1.01,2013-07-31 17:41:00,
2013-07-31 10:46:00,65.7,32.5,30.12,North,-999,0.0,0.0,29,0.00,,,-99.99,FreeWX-Wi 1.01,2013-07-31 17:46:00,
2013-07-31 10:51:00,65.5,32.4,30.12,North,-999,0.0,0.0,29,0.00,,,-99.99,FreeWX-Wi 1.01,2013-07-31 17:51:00,
2013-07-31 10:56:00,65.5,32.4,30.12,North,-999,0.0,3.6,29,0.00,,,-99.99,FreeWX-Wi 1.01,2013-07-31 17:56:00,
2013-07-31 11:01:00,65.5,31.5,30.12,North,-999,0.0,3.1,28,0.00,,,-99.99,FreeWX-Wi 1.01,2013-07-31 18:01:00,
2013-07-31 11:06:00,65.5,31.5,30.12,North,-999,0.0,0.0,28,0.00,,,-99.99,FreeWX-Wi 1.01,2013-07-31 18:06:00,
2013-07-31 11:11:00,65.8,31.8,30.12,North,-999,0.0,4.0,28,0.00,,,-99.99,FreeWX-Wi 1.01,2013-07-31 18:11:00,
2013-07-31 11:16:00,66.0,32.0,30.12,North,-999,0.0,3.6,28,0.00,,,-99.99,FreeWX-Wi 1.01,2013-07-31 18:16:00,
2013-07-31 11:21:00,66.0,31.1,30.12,North,-999,0.0,0.0,27,0.00,,,-99.99,FreeWX-Wi 1.01,2013-07-31 18:21:00,
2013-07-31 11:31:00,66.2,31.3,30.12,North,-999,0.0,0.0,27,0.00,,,-99.99,FreeWX-Wi 1.01,2013-07-31 18:31:00,
2013-07-31 11:36:00,66.6,31.5,30.12,North,-999,0.0,3.6,27,0.00,,,-99.99,FreeWX-Wi 1.01,2013-07-31 18:36:00,
2013-07-31 11:41:00,66.9,30.9,30.12,North,-999,0.0,2.7,26,0.00,,,-99.99,FreeWX-Wi 1.01,2013-07-31 18:41:00,
2013-07-31 11:46:00,67.3,31.3,30.12,North,-999,0.0,3.6,26,0.00,,,-99.99,FreeWX-Wi 1.01,2013-07-31 18:46:00,
2013-07-31 11:52:00,67.8,30.7,30.12,North,-999,0.0,3.1,25,0.00,,,-99.99,FreeWX-Wi 1.01,2013-07-31 18:52:00,
2013-07-31 11:57:00,68.2,30.0,30.12,North,-999,0.0,3.1,24,0.00,,,-99.99,FreeWX-Wi 1.01,2013-07-31 18:57:00,
2013-07-31 12:02:00,68.4,29.1,30.12,North,-999,0.0,0.0,23,0.00,,,-99.99,FreeWX-Wi 1.01,2013-07-31 19:02:00,
2013-07-31 12:07:00,68.4,30.2,30.09,North,-999,0.0,0.0,24,0.00,,,-99.99,FreeWX-Wi 1.01,2013-07-31 19:07:00,
2013-07-31 12:12:00,68.4,29.1,30.09,North,-999,0.0,3.6,23,0.00,,,-99.99,FreeWX-Wi 1.01,2013-07-31 19:12:00,
2013-07-31 12:17:00,68.2,28.9,30.09,North,-999,0.0,0.0,23,0.00,,,-99.99,FreeWX-Wi 1.01,2013-07-31 19:17:00,
2013-07-31 12:22:00,68.2,28.9,30.09,North,-999,0.0,2.2,23,0.00,,,-99.99,FreeWX-Wi 1.01,2013-07-31 19:22:00,
2013-07-31 12:27:00,68.2,30.0,30.09,North,-999,0.0,3.1,24,0.00,,,-99.99,FreeWX-Wi 1.01,2013-07-31 19:27:00,
2013-07-31 12:32:00,68.4,30.2,30.09,North,-999,0.0,4.0,24,0.00,,,-99.99,FreeWX-Wi 1.01,2013-07-31 19:32:00,
2013-07-31 12:37:00,68.7,29.5,30.09,North,-999,0.0,3.6,23,0.00,,,-99.99,FreeWX-Wi 1.01,2013-07-31 19:37:00,
2013-07-31 12:42:00,68.9,29.7,30.09,North,354,1.0,3.6,23,0.00,,,-99.99,FreeWX-Wi 1.01,2013-07-31 19:42:00,
2013-07-31 12:47:00,69.8,30.4,30.09,NNW,336,1.0,4.5,23,0.00,,,-99.99,FreeWX-Wi 1.01,2013-07-31 19:47:00,
2013-07-31 12:52:00,70.5,30.9,30.09,NW,322,1.0,4.0,23,0.00,,,-99.99,FreeWX-Wi 1.01,2013-07-31 19:52:00,
2013-07-31 12:57:00,71.2,30.4,30.09,NW,321,1.0,0.0,22,0.00,,,-99.99,FreeWX-Wi 1.01,2013-07-31 19:57:00,
2013-07-31 13:02:00,71.2,30.4,30.09,NW,324,1.0,3.6,22,0.00,,,-99.99,FreeWX-Wi 1.01,2013-07-31 20:02:00,
2013-07-31 13:07:00,71.1,30.2,30.09,North,-999,0.0,4.0,22,0.00,,,-99.99,FreeWX-Wi 1.01,2013-07-31 20:07:00,
2013-07-31 13:12:00,71.6,29.7,30.09,North,-999,0.0,4.0,21,0.00,,,-99.99,FreeWX-Wi 1.01,2013-07-31 20:12:00,
2013-07-31 13:17:00,71.8,27.3,30.09,North,-999,0.0,2.2,19,0.00,,,-99.99,FreeWX-Wi 1.01,2013-07-31 20:17:00,
2013-07-31 13:22:00,72.5,30.4,30.09,North,-999,0.0,0.0,21,0.00,,,-99.99,FreeWX-Wi 1.01,2013-07-31 20:22:00,
2013-07-31 13:27:00,73.8,27.7,30.09,North,-999,0.0,0.0,18,0.00,,,-99.99,FreeWX-Wi 1.01,2013-07-31 20:27:00,
2013-07-31 13:32:00,73.8,27.7,30.09,North,-999,0.0,0.0,18,0.00,,,-99.99,FreeWX-Wi 1.01,2013-07-31 20:32:00,
2013-07-31 13:37:00,74.5,28.2,30.09,North,-999,0.0,2.7,18,0.00,,,-99.99,FreeWX-Wi 1.01,2013-07-31 20:37:00,
2013-07-31 13:42:00,74.8,28.4,30.09,North,-999,0.0,2.2,18,0.00,,,-99.99,FreeWX-Wi 1.01,2013-07-31 20:42:00,
2013-07-31 13:47:00,75.2,28.8,30.09,North,-999,0.0,0.0,18,0.00,,,-99.99,FreeWX-Wi 1.01,2013-07-31 20:47:00,
2013-07-31 13:52:00,74.7,25.5,30.09,North,-999,0.0,0.0,16,0.00,,,-99.99,FreeWX-Wi 1.01,2013-07-31 20:52:00,
2013-07-31 13:57:00,74.8,25.7,30.09,North,-999,0.0,3.1,16,0.00,,,-99.99,FreeWX-Wi 1.01,2013-07-31 20:57:00,
2013-07-31 14:02:00,75.4,28.9,30.09,North,-999,0.0,0.0,18,0.00,,,-99.99,FreeWX-Wi 1.01,2013-07-31 21:02:00,
2013-07-31 14:07:00,75.2,24.4,30.06,North,-999,0.0,3.1,15,0.00,,,-99.99,FreeWX-Wi 1.01,2013-07-31 21:07:00,
2013-07-31 14:12:00,75.2,24.4,30.06,North,-999,0.0,0.0,15,0.00,,,-99.99,FreeWX-Wi 1.01,2013-07-31 21:12:00,
2013-07-31 14:17:00,75.7,29.3,30.06,North,-999,0.0,0.0,18,0.00,,,-99.99,FreeWX-Wi 1.01,2013-07-31 21:17:00,
2013-07-31 14:22:00,76.1,25.2,30.09,North,-999,0.0,0.0,15,0.00,,,-99.99,FreeWX-Wi 1.01,2013-07-31 21:22:00,
2013-07-31 14:27:00,76.1,25.2,30.09,North,-999,0.0,0.0,15,0.00,,,-99.99,FreeWX-Wi 1.01,2013-07-31 21:27:00,
2013-07-31 14:32:00,75.9,29.3,30.09,North,-999,0.0,0.0,18,0.00,,,-99.99,FreeWX-Wi 1.01,2013-07-31 21:32:00,
2013-07-31 14:37:00,76.3,25.2,30.06,North,-999,0.0,0.0,15,0.00,,,-99.99,FreeWX-Wi 1.01,2013-07-31 21:37:00,
2013-07-31 14:42:00,76.3,25.2,30.06,North,-999,0.0,0.0,15,0.00,,,-99.99,FreeWX-Wi 1.01,2013-07-31 21:42:00,
2013-07-31 14:47:00,76.5,25.3,30.06,North,-999,0.0,0.0,15,0.00,,,-99.99,FreeWX-Wi 1.01,2013-07-31 21:47:00,
2013-07-31 14:52:00,77.0,25.9,30.06,North,-999,0.0,3.1,15,0.00,,,-99.99,FreeWX-Wi 1.01,2013-07-31 21:52:00,
2013-07-31 14:57:00,77.9,26.6,30.06,North,-999,0.0,2.7,15,0.00,,,-99.99,FreeWX-Wi 1.01,2013-07-31 21:57:00,
2013-07-31 15:02:00,77.5,26.2,30.06,North,-999,0.0,0.0,15,0.00,,,-99.99,FreeWX-Wi 1.01,2013-07-31 22:02:00,
2013-07-31 15:07:00,78.1,26.6,30.06,North,-999,0.0,3.6,15,0.00,,,-99.99,FreeWX-Wi 1.01,2013-07-31 22:07:00,
2013-07-31 15:12:00,77.9,26.6,30.06,North,-999,0.0,5.4,15,0.00,,,-99.99,FreeWX-Wi 1.01,2013-07-31 22:12:00,
2013-07-31 15:17:00,77.0,25.9,30.06,North,-999,0.0,0.0,15,0.00,,,-99.99,FreeWX-Wi 1.01,2013-07-31 22:17:00,
2013-07-31 15:22:00,76.5,25.3,30.06,North,-999,0.0,0.0,15,0.00,,,-99.99,FreeWX-Wi 1.01,2013-07-31 22:22:00,
2013-07-31 15:27:00,76.5,25.3,30.06,North,-999,0.0,0.0,15,0.00,,,-99.99,FreeWX-Wi 1.01,2013-07-31 22:27:00,
2013-07-31 15:32:00,76.8,25.7,30.06,North,-999,0.0,0.0,15,0.00,,,-99.99,FreeWX-Wi 1.01,2013-07-31 22:32:00,
2013-07-31 15:37:00,77.4,26.1,30.06,North,-999,0.0,0.0,15,0.00,,,-99.99,FreeWX-Wi 1.01,2013-07-31 22:37:00,
2013-07-31 15:42:00,77.7,26.4,30.06,North,-999,0.0,4.0,15,0.00,,,-99.99,FreeWX-Wi 1.01,2013-07-31 22:42:00,
2013-07-31 15:47:00,77.2,25.9,30.06,North,-999,0.0,3.6,15,0.00,,,-99.99,FreeWX-Wi 1.01,2013-07-31 22:47:00,
2013-07-31 15:52:00,76.6,25.5,30.06,North,-999,0.0,4.0,15,0.00,,,-99.99,FreeWX-Wi 1.01,2013-07-31 22:52:00,
2013-07-31 15:57:00,76.8,25.7,30.06,North,-999,0.0,3.6,15,0.00,,,-99.99,FreeWX-Wi 1.01,2013-07-31 22:57:00,
2013-07-31 16:02:00,77.0,25.9,30.06,North,-999,0.0,0.0,15,0.00,,,-99.99,FreeWX-Wi 1.01,2013-07-31 23:02:00,
2013-07-31 16:07:00,76.8,25.7,30.06,North,-999,0.0,3.6,15,0.00,,,-99.99,FreeWX-Wi 1.01,2013-07-31 23:07:00,
2013-07-31 16:12:00,76.6,25.5,30.06,North,-999,0.0,4.9,15,0.00,,,-99.99,FreeWX-Wi 1.01,2013-07-31 23:12:00,
2013-07-31 16:17:00,76.5,25.3,30.06,North,-999,0.0,0.0,15,0.00,,,-99.99,FreeWX-Wi 1.01,2013-07-31 23:17:00,
2013-07-31 16:22:00,76.1,25.2,30.06,North,-999,0.0,4.0,15,0.00,,,-99.99,FreeWX-Wi 1.01,2013-07-31 23:22:00,
2013-07-31 16:27:00,75.9,25.0,30.06,North,-999,0.0,3.6,15,0.00,,,-99.99,FreeWX-Wi 1.01,2013-07-31 23:27:00,
2013-07-31 16:32:00,75.9,25.0,30.06,North,-999,0.0,3.1,15,0.00,,,-99.99,FreeWX-Wi 1.01,2013-07-31 23:32:00,
2013-07-31 16:37:00,75.7,24.8,30.06,North,-999,0.0,3.6,15,0.00,,,-99.99,FreeWX-Wi 1.01,2013-07-31 23:37:00,
2013-07-31 16:42:00,75.4,24.4,30.06,North,-999,0.0,6.3,15,0.00,,,-99.99,FreeWX-Wi 1.01,2013-07-31 23:42:00,
2013-07-31 16:47:00,75.0,25.7,30.06,NW,324,1.0,4.0,16,0.00,,,-99.99,FreeWX-Wi 1.01,2013-07-31 23:47:00,
2013-07-31 16:52:00,74.8,25.7,30.06,NNW,327,1.0,3.6,16,0.00,,,-99.99,FreeWX-Wi 1.01,2013-07-31 23:52:00,
2013-07-31 16:57:00,74.8,25.7,30.06,NW,315,1.0,3.6,16,0.00,,,-99.99,FreeWX-Wi 1.01,2013-07-31 23:57:00,
2013-07-31 17:02:00,74.7,25.5,30.06,NW,309,1.0,3.1,16,0.00,,,-99.99,FreeWX-Wi 1.01,2013-08-01 00:02:00,
2013-07-31 17:07:00,74.1,25.0,30.06,North,-999,0.0,3.6,16,0.00,,,-99.99,FreeWX-Wi 1.01,2013-08-01 00:07:00,
2013-07-31 17:12:00,73.8,24.8,30.06,North,-999,0.0,0.0,16,0.00,,,-99.99,FreeWX-Wi 1.01,2013-08-01 00:12:00,
2013-07-31 17:17:00,73.4,24.4,30.06,North,-999,0.0,0.0,16,0.00,,,-99.99,FreeWX-Wi 1.01,2013-08-01 00:17:00,
2013-07-31 17:22:00,73.0,24.3,30.06,North,-999,0.0,0.0,16,0.00,,,-99.99,FreeWX-Wi 1.01,2013-08-01 00:22:00,
2013-07-31 17:27:00,72.7,23.9,30.06,North,-999,0.0,0.0,16,0.00,,,-99.99,FreeWX-Wi 1.01,2013-08-01 00:27:00,
2013-07-31 17:32:00,72.7,23.9,30.06,North,-999,0.0,0.0,16,0.00,,,-99.99,FreeWX-Wi 1.01,2013-08-01 00:32:00,
2013-07-31 17:42:00,72.5,23.7,30.06,North,-999,0.0,0.0,16,0.00,,,-99.99,FreeWX-Wi 1.01,2013-08-01 00:42:00,
2013-07-31 17:47:00,72.5,23.7,30.06,North,-999,0.0,0.0,16,0.00,,,-99.99,FreeWX-Wi 1.01,2013-08-01 00:47:00,
2013-07-31 17:52:00,72.5,23.7,30.06,North,-999,0.0,0.0,16,0.00,,,-99.99,FreeWX-Wi 1.01,2013-08-01 00:52:00,
2013-07-31 17:57:00,72.5,23.7,30.06,North,-999,0.0,0.0,16,0.00,,,-99.99,FreeWX-Wi 1.01,2013-08-01 00:57:00,
2013-07-31 18:02:00,72.5,23.7,30.06,North,-999,0.0,0.0,16,0.00,,,-99.99,FreeWX-Wi 1.01,2013-08-01 01:02:00,
2013-07-31 18:07:00,72.5,23.7,30.06,North,-999,0.0,0.0,16,0.00,,,-99.99,FreeWX-Wi 1.01,2013-08-01 01:07:00,
2013-07-31 18:12:00,72.3,23.5,30.06,North,-999,0.0,3.6,16,0.00,,,-99.99,FreeWX-Wi 1.01,2013-08-01 01:12:00,
2013-07-31 18:17:00,72.1,23.5,30.06,North,-999,0.0,3.6,16,0.00,,,-99.99,FreeWX-Wi 1.01,2013-08-01 01:17:00,
2013-07-31 18:22:00,71.8,23.2,30.06,North,-999,0.0,3.6,16,0.00,,,-99.99,FreeWX-Wi 1.01,2013-08-01 01:22:00,
2013-07-31 18:27:00,71.6,23.0,30.06,North,-999,0.0,4.0,16,0.00,,,-99.99,FreeWX-Wi 1.01,2013-08-01 01:27:00,
2013-07-31 18:32:00,71.4,24.3,30.06,West,272,1.0,4.0,17,0.00,,,-99.99,FreeWX-Wi 1.01,2013-08-01 01:32:00,
2013-07-31 18:38:00,71.2,24.3,30.06,West,269,2.0,3.6,17,0.00,,,-99.99,FreeWX-Wi 1.01,2013-08-01 01:38:00,
2013-07-31 18:43:00,71.1,24.1,30.06,West,266,2.0,4.0,17,0.00,,,-99.99,FreeWX-Wi 1.01,2013-08-01 01:43:00,
2013-07-31 18:48:00,70.9,23.9,30.06,West,267,2.0,3.6,17,0.00,,,-99.99,FreeWX-Wi 1.01,2013-08-01 01:48:00,
2013-07-31 18:53:00,70.7,26.4,30.06,West,268,2.0,0.0,19,0.00,,,-99.99,FreeWX-Wi 1.01,2013-08-01 01:53:00,
2013-07-31 18:58:00,70.5,26.2,30.06,West,270,1.0,0.0,19,0.00,,,-99.99,FreeWX-Wi 1.01,2013-08-01 01:58:00,
2013-07-31 19:03:00,70.5,23.5,30.06,West,272,1.0,2.7,17,0.00,,,-99.99,FreeWX-Wi 1.01,2013-08-01 02:03:00,
2013-07-31 19:08:00,70.3,26.1,30.06,North,-999,0.0,0.0,19,0.00,,,-99.99,FreeWX-Wi 1.01,2013-08-01 02:08:00,
2013-07-31 19:13:00,70.2,26.1,30.06,North,-999,0.0,3.6,19,0.00,,,-99.99,FreeWX-Wi 1.01,2013-08-01 02:13:00,
2013-07-31 19:18:00,70.2,26.1,30.06,North,-999,0.0,3.1,19,0.00,,,-99.99,FreeWX-Wi 1.01,2013-08-01 02:18:00,
2013-07-31 19:23:00,70.0,25.9,30.06,North,-999,0.0,3.1,19,0.00,,,-99.99,FreeWX-Wi 1.01,2013-08-01 02:23:00,
2013-07-31 19:28:00,69.8,25.7,30.06,North,-999,0.0,3.1,19,0.00,,,-99.99,FreeWX-Wi 1.01,2013-08-01 02:28:00,
2013-07-31 19:33:00,69.6,26.8,30.06,North,-999,0.0,0.0,20,0.00,,,-99.99,FreeWX-Wi 1.01,2013-08-01 02:33:00,
2013-07-31 19:38:00,69.4,26.6,30.06,North,-999,0.0,0.0,20,0.00,,,-99.99,FreeWX-Wi 1.01,2013-08-01 02:38:00,
2013-07-31 19:43:00,69.3,26.4,30.06,North,-999,0.0,0.0,20,0.00,,,-99.99,FreeWX-Wi 1.01,2013-08-01 02:43:00,
2013-07-31 19:48:00,69.1,26.2,30.06,North,-999,0.0,0.0,20,0.00,,,-99.99,FreeWX-Wi 1.01,2013-08-01 02:48:00,
2013-07-31 19:53:00,68.7,26.1,30.06,North,-999,0.0,0.0,20,0.00,,,-99.99,FreeWX-Wi 1.01,2013-08-01 02:53:00,
2013-07-31 19:58:00,68.5,25.9,30.06,North,-999,0.0,0.0,20,0.00,,,-99.99,FreeWX-Wi 1.01,2013-08-01 02:58:00,
2013-07-31 20:03:00,68.2,25.5,30.06,North,-999,0.0,0.0,20,0.00,,,-99.99,FreeWX-Wi 1.01,2013-08-01 03:03:00,
2013-07-31 20:08:00,67.8,25.3,30.06,North,-999,0.0,0.0,20,0.00,,,-99.99,FreeWX-Wi 1.01,2013-08-01 03:08:00,
2013-07-31 20:13:00,67.6,25.2,30.06,North,-999,0.0,0.0,20,0.00,,,-99.99,FreeWX-Wi 1.01,2013-08-01 03:13:00,
2013-07-31 20:18:00,67.3,24.8,30.06,North,-999,0.0,0.0,20,0.00,,,-99.99,FreeWX-Wi 1.01,2013-08-01 03:18:00,
2013-07-31 20:23:00,67.1,27.0,30.06,North,-999,0.0,0.0,22,0.00,,,-99.99,FreeWX-Wi 1.01,2013-08-01 03:23:00,
2013-07-31 20:28:00,66.7,26.6,30.06,North,-999,0.0,0.0,22,0.00,,,-99.99,FreeWX-Wi 1.01,2013-08-01 03:28:00,
2013-07-31 20:33:00,66.6,26.6,30.06,North,-999,0.0,0.0,22,0.00,,,-99.99,FreeWX-Wi 1.01,2013-08-01 03:33:00,
2013-07-31 20:43:00,66.0,27.1,30.06,North,-999,0.0,0.0,23,0.00,,,-99.99,FreeWX-Wi 1.01,2013-08-01 03:43:00,
2013-07-31 20:48:00,65.8,27.0,30.06,North,-999,0.0,0.0,23,0.00,,,-99.99,FreeWX-Wi 1.01,2013-08-01 03:48:00,
2013-07-31 20:53:00,65.8,27.0,30.06,North,-999,0.0,0.0,23,0.00,,,-99.99,FreeWX-Wi 1.01,2013-08-01 03:53:00,
2013-07-31 20:58:00,65.7,26.8,30.06,North,-999,0.0,0.0,23,0.00,,,-99.99,FreeWX-Wi 1.01,2013-08-01 03:58:00,
2013-07-31 21:03:00,65.3,26.6,30.06,North,-999,0.0,0.0,23,0.00,,,-99.99,FreeWX-Wi 1.01,2013-08-01 04:03:00,
2013-07-31 21:08:00,65.1,27.5,30.09,North,-999,0.0,0.0,24,0.00,,,-99.99,FreeWX-Wi 1.01,2013-08-01 04:08:00,
2013-07-31 21:13:00,64.4,26.8,30.09,North,-999,0.0,0.0,24,0.00,,,-99.99,FreeWX-Wi 1.01,2013-08-01 04:13:00,
2013-07-31 21:18:00,63.7,27.1,30.09,North,-999,0.0,0.0,25,0.00,,,-99.99,FreeWX-Wi 1.01,2013-08-01 04:18:00,
2013-07-31 21:23:00,63.1,26.8,30.09,North,-999,0.0,0.0,25,0.00,,,-99.99,FreeWX-Wi 1.01,2013-08-01 04:23:00,
2013-07-31 21:28:00,62.8,27.3,30.09,North,-999,0.0,0.0,26,0.00,,,-99.99,FreeWX-Wi 1.01,2013-08-01 04:28:00,
2013-07-31 21:33:00,62.8,27.3,30.09,North,-999,0.0,0.0,26,0.00,,,-99.99,FreeWX-Wi 1.01,2013-08-01 04:33:00,
2013-07-31 21:38:00,62.8,27.3,30.09,North,-999,0.0,0.0,26,0.00,,,-99.99,FreeWX-Wi 1.01,2013-08-01 04:38:00,
2013-07-31 21:43:00,62.8,27.3,30.09,North,-999,0.0,0.0,26,0.00,,,-99.99,FreeWX-Wi 1.01,2013-08-01 04:43:00,
2013-07-31 21:48:00,62.8,27.3,30.09,North,-999,0.0,0.0,26,0.00,,,-99.99,FreeWX-Wi 1.01,2013-08-01 04:48:00,
2013-07-31 21:53:00,62.6,28.2,30.09,North,-999,0.0,0.0,27,0.00,,,-99.99,FreeWX-Wi 1.01,2013-08-01 04:53:00,
2013-07-31 21:58:00,62.4,28.9,30.09,North,-999,0.0,0.0,28,0.00,,,-99.99,FreeWX-Wi 1.01,2013-08-01 04:58:00,
2013-07-31 22:03:00,62.2,29.7,30.09,North,-999,0.0,0.0,29,0.00,,,-99.99,FreeWX-Wi 1.01,2013-08-01 05:03:00,
2013-07-31 22:08:00,62.2,29.7,30.09,North,-999,0.0,0.0,29,0.00,,,-99.99,FreeWX-Wi 1.01,2013-08-01 05:08:00,
2013-07-31 22:13:00,62.1,29.5,30.09,North,-999,0.0,0.0,29,0.00,,,-99.99,FreeWX-Wi 1.01,2013-08-01 05:13:00,
2013-07-31 22:18:00,62.1,29.5,30.09,North,-999,0.0,0.0,29,0.00,,,-99.99,FreeWX-Wi 1.01,2013-08-01 05:18:00,
2013-07-31 22:23:00,61.9,29.3,30.09,North,-999,0.0,0.0,29,0.00,,,-99.99,FreeWX-Wi 1.01,2013-08-01 05:23:00,
2013-07-31 22:28:00,61.9,29.3,30.09,North,-999,0.0,0.0,29,0.00,,,-99.99,FreeWX-Wi 1.01,2013-08-01 05:28:00,
2013-07-31 22:33:00,61.7,29.1,30.09,North,-999,0.0,0.0,29,0.00,,,-99.99,FreeWX-Wi 1.01,2013-08-01 05:33:00,
2013-07-31 22:38:00,61.7,30.0,30.09,North,-999,0.0,0.0,30,0.00,,,-99.99,FreeWX-Wi 1.01,2013-08-01 05:38:00,
2013-07-31 22:43:00,61.7,30.0,30.09,North,-999,0.0,0.0,30,0.00,,,-99.99,FreeWX-Wi 1.01,2013-08-01 05:43:00,
2013-07-31 22:48:00,61.3,30.4,30.09,North,-999,0.0,0.0,31,0.00,,,-99.99,FreeWX-Wi 1.01,2013-08-01 05:48:00,
2013-07-31 22:53:00,61.2,30.2,30.09,North,-999,0.0,0.0,31,0.00,,,-99.99,FreeWX-Wi 1.01,2013-08-01 05:53:00,
2013-07-31 22:58:00,61.2,31.1,30.09,North,-999,0.0,0.0,32,0.00,,,-99.99,FreeWX-Wi 1.01,2013-08-01 05:58:00,
2013-07-31 23:03:00,61.2,31.1,30.09,North,-999,0.0,0.0,32,0.00,,,-99.99,FreeWX-Wi 1.01,2013-08-01 06:03:00,
2013-07-31 23:08:00,61.2,31.1,30.09,North,-999,0.0,0.0,32,0.00,,,-99.99,FreeWX-Wi 1.01,2013-08-01 06:08:00,
2013-07-31 23:13:00,61.2,32.5,30.09,North,-999,0.0,0.0,34,0.00,,,-99.99,FreeWX-Wi 1.01,2013-08-01 06:13:00,
2013-07-31 23:18:00,61.0,31.6,30.09,North,-999,0.0,0.0,33,0.00,,,-99.99,FreeWX-Wi 1.01,2013-08-01 06:18:00,
2013-07-31 23:23:00,61.0,32.4,30.09,North,-999,0.0,0.0,34,0.00,,,-99.99,FreeWX-Wi 1.01,2013-08-01 06:23:00,
2013-07-31 23:28:00,61.0,32.4,30.09,North,-999,0.0,0.0,34,0.00,,,-99.99,FreeWX-Wi 1.01,2013-08-01 06:28:00,
2013-07-31 23:33:00,61.2,31.8,30.09,North,-999,0.0,0.0,33,0.00,,,-99.99,FreeWX-Wi 1.01,2013-08-01 06:33:00,
2013-07-31 23:38:00,61.2,32.5,30.09,North,-999,0.0,0.0,34,0.00,,,-99.99,FreeWX-Wi 1.01,2013-08-01 06:38:00,
2013-07-31 23:43:00,61.2,32.5,30.09,North,-999,0.0,0.0,34,0.00,,,-99.99,FreeWX-Wi 1.01,2013-08-01 06:43:00,
2013-07-31 23:48:00,61.0,32.4,30.09,North,-999,0.0,0.0,34,0.00,,,-99.99,FreeWX-Wi 1.01,2013-08-01 06:48:00,
2013-07-31 23:53:00,61.0,32.4,30.09,North,-999,0.0,0.0,34,0.00,,,-99.99,FreeWX-Wi 1.01,2013-08-01 06:53:00,
2013-07-31 23:58:00,61.0,32.4,30.09,North,-999,0.0,0.0,34,0.00,,,-99.99,FreeWX-Wi 1.01,2013-08-01 06:58:00,